Regional Weather Roundup
Issued by NWS

Home | Current Version | Previous Version | Graphics & Text | Print | Product List | Glossary Off
Versions: 1 2 3 4 5 6 7 8 9 10 11 12 13 14 15 16 17 18 19 20 21 22 23 24 25 26 27 28 29 30 31 32 33 34 35 36 37 38 39 40 41 42 43 44 45 46 47 48 49 50

000
ASUS43 KMKX 262111
RWRWI

WISCONSIN REGIONAL WEATHER ROUNDUP
NATIONAL WEATHER SERVICE MILWAUKEE/SULLIVAN WI
400 PM CDT FRI AUG 26 2016

NOTE: "FAIR" INDICATES FEW OR NO CLOUDS BELOW 12,000 FEET WITH NO
SIGNIFICANT WEATHER AND/OR OBSTRUCTIONS TO VISIBILITY.

WIZ001-002-006>008-014>016-023>028-262200-
NORTHWEST WISCONSIN

CITY           SKY/WX    TMP DP  RH WIND       PRES   REMARKS
SUPERIOR ARPT  PTSUNNY   72  52  48 SW7       30.11S
ASHLAND        CLOUDY    72  51  47 CALM      30.15R
HAYWARD        CLOUDY    69  51  52 W6        30.16S
SIREN          PTSUNNY   71  49  46 S7        30.15S
CUMBERLAND     CLOUDY    68  48  49 CALM      30.16S
RICE LAKE      CLOUDY    70  51  51 W3        30.17F
CHETEK         NOT AVBL
LADYSMITH      CLOUDY    70  52  53 W3        30.17F
EAU CLAIRE     CLOUDY    72  52  49 VRB5      30.15S
MENOMONIE      MOSUNNY   72  51  48 NW5       30.16S
NEW RICHMOND   CLOUDY    71  51  49 W3        30.16S
OSCEOLA        MOSUNNY   71  53  52 CALM      30.18S
$$

WIZ003>005-009-010-017-018-262200-
NORTH CENTRAL WISCONSIN

CITY           SKY/WX    TMP DP  RH WIND       PRES   REMARKS
MANITOWISH WTR NOT AVBL
ARBOR VITAE    PTSUNNY   69  51  52 NW3       30.16S
WOODRUFF       PTSUNNY   69  51  52 NW3       30.16S
RHINELANDER    PTSUNNY   69  51  52 NW5       30.16F
EAGLE RIVER    MOSUNNY   67  47  47 NW3       30.15F
LAND O LAKES   PTSUNNY   68  46  45 NW6       30.16F
PHILLIPS       PTSUNNY   67  51  57 CALM      30.16S
TOMAHAWK       PTSUNNY   68  48  48 CALM      30.16S
MEDFORD        MOSUNNY   68  51  55 N5        30.17R
MERRILL        PTSUNNY   71  51  49 CALM      30.16R
$$

WIZ029-030-035-036-043>047-262200-
CENTRAL WISCONSIN

CITY           SKY/WX    TMP DP  RH WIND       PRES   REMARKS
WAUSAU         CLOUDY    71  51  49 NW8       30.14S
MOSINEE        MOSUNNY   70  52  52 W7        30.16S
MARSHFIELD     CLOUDY    70  52  52 W7        30.16R
STEVENS POINT  PTSUNNY   68  52  56 SW3       30.16S
WAUPACA        CLOUDY    73  54  51 SW6       30.15S
WAUTOMA        CLOUDY    72  58  61 S5        30.16R
WISC RAPIDS    PTSUNNY   71  54  54 VRB3      30.18R
CAMP DOUGLAS   CLOUDY    72  57  60 S3        30.15S
$$

WIZ011>013-019>022-031-037>040-048>050-262200-
NORTHEAST WISCONSIN

CITY           SKY/WX    TMP DP  RH WIND       PRES   REMARKS
ANTIGO         PTSUNNY   68  51  53 CALM      30.16R
SHAWANO        CLOUDY    74  54  48 W5        30.14S
OCONTO         NOT AVBL
STURGEON BAY   MOSUNNY   72  56  57 SW8       30.14S
GREEN BAY      PTSUNNY   71  58  63 W5        30.14S
MANITOWOC      CLOUDY    69  58  67 S9        30.15R
APPLETON       PTSUNNY   72  48  43 VRB6      30.14S
CLINTONVILLE   PTSUNNY   72  50  46 W6        30.14S
OSHKOSH        CLOUDY    72  56  57 VRB5      30.14F
$$

WIZ032>034-041-042-053>061-262200-
SOUTHWEST WISCONSIN

CITY           SKY/WX    TMP DP  RH WIND       PRES   REMARKS
LA CROSSE      CLOUDY    73  58  59 SW5       30.14F
SPARTA         MOSUNNY   71  55  57 S3        30.16S
VIROQUA        CLOUDY    70  57  64 CALM      30.17S
BOSCOBEL       CLOUDY    71  62  73 S3        30.16R
PRAIRIE DU CHI CLOUDY    69  57  65 CALM      30.15S
PLATTEVILLE    PTSUNNY   72  62  71 N5        30.14F
$$

WIZ056-057-062-063-064-067-068-262200-
SOUTH CENTRAL WISCONSIN

CITY           SKY/WX    TMP DP  RH WIND       PRES   REMARKS
REEDSBURG      NOT AVBL
BARABOO/DELLS  CLOUDY    69  56  62 CALM      30.15F
LONE ROCK      CLOUDY    71  59  65 NE6       30.13F
MINERAL POINT  PTSUNNY   72  59  64 NW3       30.15S
MADISON        PTSUNNY   73  58  59 NW3       30.13F
MIDDLETON      PTSUNNY   73  57  56 NW3       30.14F
WATERTOWN      MOSUNNY   74  60  62 CALM      30.13F
MONROE         CLOUDY    73  57  56 NE3       30.13F
JANESVILLE     PTSUNNY   75  57  53 CALM      30.12F
$$

WIZ051-052-058>065-066-070>072-262200-
SOUTHEAST WISCONSIN

CITY           SKY/WX    TMP DP  RH WIND       PRES   REMARKS
MILWAUKEE      PTSUNNY   74  57  55 E9        30.13F
WAUKESHA       SUNNY     72  57  60 CALM      30.15F
MILWAUKEE/TIMM SUNNY     75  52  43 E8        30.14F
RACINE         CLOUDY    75  59  57 E9        30.14F
BURLINGTON     MOSUNNY   76  56  50 CALM      30.12F
KENOSHA        CLOUDY    76  62  62 E12       30.13F
FOND DU LAC    CLOUDY    72  57  59 VRB5      30.15F
SHEBOYGAN      CLOUDY    72  54  53 NW6       30.14F
WEST BEND      MOSUNNY   73  55  53 CALM      30.14F
JUNEAU         CLOUDY    71  57  62 N5        30.15F
$$

LSZ147-162-262200-
LAKE SUPERIOR

STATION/POSITION TIME  TEMP    WIND        PRES    WAVE
                       AIR SEA DIR/SP/G            HT/PER
                 (UTC) (F)     (DEG/KT/KT) (MB)    (FT/S)
W MID LAKE BUOY  2050   65 69  140/  2/  4 1020.4R   1/ 4
DEVILS ISLAND    2000   65     120/  7/  9 1020.5F
PORT WING        2000   71     350/  3/  4 1020.3F
SAXON HARBOR     2040   69      40/  4/  6 1021.0S
$$

LMZ867-665-643>646-262200-
LAKE MICHIGAN

STATION/POSITION TIME  TEMP    WIND        PRES    WAVE
                       AIR SEA DIR/SP/G            HT/PER
                 (UTC) (F)     (DEG/KT/KT) (MB)    (FT/S)
CHAMBERS ISLAND  2000   72     160/  4/ 10 1020.0S
S GREEN BAY BUOY 2030   71 73  200/  8/ 10 1019.5F
N MID LAKE BUOY  2050   68 71  210/  8/ 12 1019.5R   1
NORTHPORT PIER   1900   73     270/  4/  7 1020.0S
SISTER BAY       2007   80     270/  7/  8   N/A
KEWAUNEE LAKESHO 2000   65     170/  7/  9 1020.3S
SHEBOYGAN LAKESH 2100   65     170/  6/  7 1020.1F
PORT WASHINGTON  2000   71     180/  6/  8 1021.7
ATWATER BUOY     2100   67     110/  4/  4   N/A
MILWAUKEE LAKESH 2010   70     100/  6/  7   N/A
S MID LAKE BUOY  2050   71 76   20/  6/  8 1020.2F   1
KENOSHA   LAKESH 2100   75     110/  6/  8 1019.6F
$$

TC  - TEMPERATURE IN CELSIUS
VSB - VISIBILITY IN STATUTE MILES
WCI - WIND CHILL INDEX
HX  - HEAT INDEX





USA.gov is the U.S. government's official web portal to all federal, state and local government web resources and services.